WIOO

Supadio International Airport

Airport
ICAO code
WIOO
IATA Code
PNK
Summary
ICAO Region
APAC
ICAO Territory
Location

Limbung, West Kalimantan

Serving
Ponianak
Elevation
10 ft
Coordinates
0° 9' 2" S , 109° 24' 14" E
KCC
Metar
WIOO 192200Z 36002KT 6000 FEW012 24/24 Q1007 NOSIG

Supadio International Airport, formerly known as Sei Durian Airport or Sungai Durian Airport, is an international airport located 17 km from Pontianak, West Kalimantan, Indonesia.

Climatology

Tropical Rainforest climate (Köppen climate classification Af)

Airport map

Aerial View

SKYbrary Partners:

Safety knowledge contributed by: